This demonstration page uses our WeatherBlox Daily Observations layout. Learn more.

Left ArrowRight Arrow

53.62937, 11.41316

Hourly Observations for April 3, 2019

Temp ( °F °C ) Dew Point ( °F °C ) Humidity (%) Winds ( mph kmh ) Pressure ( in mb ) Visibility ( mi km ) Precip ( " mm )
6:50 am 06:50 Mostly Sunny 48 9 41 5 76 76 SSE 5 7 29.62 1003 7 11 N/A
7:20 am 07:20 Mostly Cloudy 48 9 41 5 76 76 S 5 7 29.62 1003 30 48 N/A
7:50 am 07:50 Mostly Sunny 48 9 43 6 82 82 VRB 2 4 29.62 1003 7 11 N/A
8:20 am 08:20 Partly Cloudy with Light Rain 48 9 43 6 82 82 ESE 3 6 29.65 1004 30 48 N/A
8:50 am 08:50 Mostly Sunny 50 10 45 7 82 82 SE 3 6 29.65 1004 7 11 N/A
9:20 am 09:20 Mostly Sunny 50 10 45 7 82 82 SE 7 11 29.65 1004 7 11 N/A
9:50 am 09:50 Mostly Sunny 50 10 45 7 82 82 SE 8 13 29.68 1005 7 11 N/A
10:20 am 10:20 Mostly Cloudy with Light Rain 50 10 45 7 82 82 SE 7 11 29.68 1005 30 48 N/A
10:50 am 10:50 Partly Cloudy 52 11 46 8 82 82 ESE 5 7 29.68 1005 30 48 N/A
11:20 am 11:20 Mostly Cloudy 52 11 46 8 82 82 ESE 3 6 29.68 1005 30 48 N/A
11:50 am 11:50 Mostly Cloudy 52 11 46 8 82 82 VRB 2 4 29.68 1005 30 48 N/A
12:20 pm 12:20 Mostly Cloudy with Light Rain 52 11 46 8 82 82 ESE 3 6 29.68 1005 6 9 N/A
12:50 pm 12:50 Mostly Cloudy with Drizzle 52 11 48 9 88 88 VRB 2 4 29.68 1005 30 48 N/A
1:20 pm 13:20 Mostly Cloudy with Light Rain 50 10 48 9 94 94 VRB 2 4 29.68 1005 5 8 N/A
1:50 pm 13:50 Mostly Sunny 52 11 48 9 88 88 VRB 2 4 29.65 1004 30 48 N/A
2:20 pm 14:20 Mostly Sunny 52 11 48 9 88 88 VRB 1 2 29.65 1004 30 48 N/A
2:50 pm 14:50 Partly Cloudy 52 11 48 9 88 88 VRB 2 4 29.65 1004 30 48 N/A
3:20 pm 15:20 Partly Cloudy 52 11 48 9 88 88 E 3 6 29.65 1004 30 48 N/A
3:50 pm 15:50 Mostly Sunny 52 11 48 9 88 88 ENE 5 7 29.62 1003 7 11 N/A
4:20 pm 16:20 Partly Cloudy with Light Rain 52 11 48 9 88 88 ENE 6 9 29.62 1003 30 48 N/A
4:50 pm 16:50 Mostly Cloudy 52 11 48 9 88 88 ENE 7 11 29.62 1003 30 48 N/A
5:20 pm 17:20 Mostly Cloudy 54 12 50 10 88 88 E 8 13 29.62 1003 30 48 N/A
5:50 pm 17:50 Mostly Cloudy 52 11 48 9 88 88 ENE 9 15 29.62 1003 30 48 N/A
6:20 pm 18:20 Mostly Sunny 52 11 48 9 88 88 ENE 9 15 29.59 1002 30 48 N/A
6:50 pm 18:50 Mostly Sunny 52 11 48 9 88 88 ENE 9 15 29.59 1002 7 11 N/A
7:20 pm 19:20 Mostly Sunny 50 10 46 8 88 88 ENE 8 13 29.59 1002 7 11 N/A
7:50 pm 19:50 Mostly Sunny 48 9 46 8 94 94 ENE 8 13 29.59 1002 7 11 N/A
8:20 pm 20:20 Mostly Clear 48 9 46 8 94 94 E 7 11 29.59 1002 7 11 N/A
8:50 pm 20:50 Mostly Clear 46 8 45 7 93 93 E 3 6 29.59 1002 7 11 N/A

Powered by AerisWeather